Погода в Свордсе

Ирландия     53°27′37″N   6°13′32″W
темп.,
°C
ветер,
м/с
пор.,
м/с
влажн.,
%
обл.,
%
осадки,
мм/ч
давл.,
гПа
погр.,
м
12 августа, пт
пт1201:00+15св33860 0.0 102235
04:00+14св33875 0.0 102248
07:00+15св24840 0.0 102174
10:00+20св45605 0.0 1021328
13:00+21всв44565 0.0 1020444
16:00+22всв44534 0.0 1019403
19:00+20св34640 0.0 1019204
22:00+15ссв22850 0.0 101917
13 августа, сб
сб1301:00+15ссв22870 0.0 101815
04:00+15ссв22805 0.0 101721
07:00+16с3776100 0.0 1017156
10:00+20ссв557161 0.0 1016336
13:00+22св546283 0.0 1016414
16:00+21всв4464100 0.0 1015349
19:00+20св336899 0.0 1014199
22:00+16ссв228269 0.0 101425
14 августа, вс
вс1401:00+16ссв228152 0.0 101320
04:00+16ссз337675 0.0 101137
07:00+16ссз34755 0.0 101082
10:00+21ссв45605 0.0 1010393
13:00+23св445584 0.0 1009492
16:00+23св445343 0.0 1007475
19:00+21в2360100 0.1 1006217
22:00+15сз3893100 1.1 1006181
15 августа, пн
пн1501:00+16св4694100 13.2 1006182
04:00+16ссв3494100 0.0 1003121
07:00+16ссз1291100 0.0 100445
10:00+18сз2281100 1.1 1004451
13:00+19с227193 1.2 1004731
16:00+21св336379 0.1 1004810
19:00+19в337087 0.1 1005386
22:00+17ссз367999 0.0 1006350
16 августа, вт
вт1601:00+14ссз51078100 0.0 1007372
04:00+13ссз61188100 0.0 1007422
07:00+14ссз71285100 0.0 1008515
10:00+15с7979100 0.0 1009627
13:00+17с7873100 0.0 1011658
16:00+18с6767100 0.0 1011893
19:00+18с5869100 0.0 1012737
22:00+15с5876100 0.0 1014375